Weather History for Augusta Bush, GA

Change the Weather History Date:

Sunday, February 10, 2013

  Actual Average Record
Temperature  
Mean Temperature 50 °F 48 °F  
Max Temperature 69 °F 61 °F 79 °F (1959)
Min Temperature 31 °F 35 °F 14 °F (1971)
Degree Days  
Heating Degree Days 15 17  
Month to date heating degree days 179 176  
Since 1 July heating degree days 1504 1761  
Cooling Degree Days 0 0  
Month to date cooling degree days 0 0  
Year to date cooling degree days 15 1  
Moisture  
Dew Point 42 °F    
Average Humidity 69    
Maximum Humidity 96    
Minimum Humidity 42    
Precipitation  
Precipitation 0.20 in 0.14 in 2.35 in (1981)
Month to date precipitation 3.30 1.32  
Year to date precipitation 3.90 5.23  
Sea Level Pressure  
Sea Level Pressure 30.27 in    
Wind  
Wind Speed 6 mph (SE)    
Max Wind Speed 21 mph    
Max Gust Speed 28 mph    
Visibility 9 miles    
Events Rain    
T = Trace of Precipitation, MM = Missing Value Source: NWS Daily Summary

Daily Weather History Graph

Daily Weather History Graph

Search for Another Location

Airport:

Trip Planner

Search our weather history database for the weather conditions in past years. The results will help you decide how hot, cold, wet, or windy it might be!

Date:

Astronomy

Feb. 10, 2013 Rise Set
Actual Time 7:16 AM EST 6:08 PM EST
Civil Twilight 6:50 AM EST 6:33 PM EST
Nautical Twilight 6:21 AM EST 7:03 PM EST
Astronomical Twilight 5:52 AM EST 7:32 PM EST
Moon 7:09 AM EST (2/10) 6:52 PM EST (2/10)
Length of Visible Light 11h 43m
Length of Day
10h 52m
New Moon, 0% of the Moon is Illuminated
Feb 10
New Moon
Feb 17
First Quarter
Feb 25
Full
Mar 4
Last Quarter
Mar 11
New

Hourly Weather History & Observations

Time (EST) Temp. Windchill Dew Point Humidity Pressure Visibility Wind Dir Wind Speed Gust Speed Precip Events Conditions
12:53 AM 35.1 °F - 30.9 °F 85% 30.32 in 10.0 mi Calm Calm - N/A   Clear
1:53 AM 34.0 °F - 30.9 °F 89% 30.33 in 10.0 mi Calm Calm - N/A   Clear
2:53 AM 33.1 °F - 30.9 °F 92% 30.33 in 8.0 mi Calm Calm - N/A   Clear
3:53 AM 33.1 °F 30.0 °F 32.0 °F 96% 30.32 in 8.0 mi SW 3.5 mph - N/A   Clear
4:53 AM 36.0 °F 32.1 °F 33.1 °F 89% 30.34 in 10.0 mi WNW 4.6 mph - N/A   Clear
5:53 AM 35.1 °F - 33.1 °F 92% 30.36 in 8.0 mi Calm Calm - N/A   Clear
6:53 AM 36.0 °F - 34.0 °F 93% 30.38 in 8.0 mi Calm Calm - N/A   Clear
7:53 AM 37.4 °F - 35.6 °F 93% 30.38 in 8.0 mi Calm Calm - N/A   Clear
8:53 AM 45.0 °F - 37.9 °F 76% 30.37 in 10.0 mi Calm Calm - N/A   Clear
9:53 AM 51.1 °F - 37.9 °F 61% 30.37 in 10.0 mi Calm Calm - N/A   Clear
10:53 AM 57.9 °F - 37.0 °F 46% 30.40 in 10.0 mi East 9.2 mph - N/A   Partly Cloudy
11:53 AM 61.0 °F - 39.9 °F 46% 30.36 in 10.0 mi SE 10.4 mph 16.1 mph N/A   Scattered Clouds
12:53 PM 64.0 °F - 43.0 °F 46% 30.32 in 10.0 mi ESE 8.1 mph - N/A   Scattered Clouds
1:53 PM 66.0 °F - 45.0 °F 47% 30.25 in 10.0 mi SSE 11.5 mph 21.9 mph N/A   Clear
2:53 PM 68.0 °F - 45.0 °F 43% 30.23 in 10.0 mi SSE 12.7 mph 24.2 mph N/A   Scattered Clouds
3:53 PM 68.0 °F - 46.9 °F 47% 30.20 in 10.0 mi SSE 16.1 mph 20.7 mph N/A   Partly Cloudy
4:53 PM 66.9 °F - 46.9 °F 49% 30.18 in 10.0 mi SSE 13.8 mph 21.9 mph N/A   Overcast
5:53 PM 64.9 °F - 48.0 °F 54% 30.17 in 10.0 mi SSE 12.7 mph 21.9 mph N/A   Mostly Cloudy
6:53 PM 64.0 °F - 48.0 °F 56% 30.13 in 10.0 mi SE 10.4 mph 17.3 mph N/A   Clear
7:53 PM 63.0 °F - 48.9 °F 60% 30.16 in 10.0 mi SSE 13.8 mph 18.4 mph N/A   Clear
8:53 PM 62.1 °F - 51.1 °F 67% 30.16 in 10.0 mi SSE 10.4 mph - N/A   Mostly Cloudy
9:53 PM 60.1 °F - 53.1 °F 78% 30.19 in 8.0 mi SSE 3.5 mph - 0.01 in Rain Light Rain
10:53 PM 57.0 °F - 55.0 °F 93% 30.20 in 8.0 mi NE 6.9 mph - 0.06 in Rain Light Rain
11:21 PM 57.2 °F - 55.4 °F 94% 30.21 in 4.0 mi NNE 4.6 mph - 0.05 in Rain Light Rain
11:31 PM 57.2 °F - 55.4 °F 94% 30.21 in 4.0 mi Calm Calm - 0.06 in Rain Rain
11:53 PM 55.9 °F - 55.0 °F 97% 30.21 in 4.0 mi Calm Calm - 0.12 in Rain Rain